| time (UTC) | temp F | wind direction | speed MPH | gust MPH | rain 1hr in | rain 24hr in | rain mn in | humidity % | barometer mb |
| 20260507104503 | 46 | 259 | 3.0 | 12.0 | 0.00 | 0.00 | 0.00 | 73 | 1015.0 |
| 20260507103001 | 45 | 274 | 4.0 | 9.0 | 0.00 | 0.00 | 0.00 | 74 | 1015.1 |
| 20260507101604 | 44 | 286 | 4.0 | 11.0 | 0.00 | 0.00 | 0.00 | 73 | 1015.1 |
| 20260507100109 | 44 | 287 | 2.0 | 10.0 | 0.00 | 0.00 | 0.00 | 74 | 1015.1 |
| 20260507094601 | 43 | 313 | 4.0 | 8.0 | 0.00 | 0.00 | 0.00 | 71 | 1015.2 |
| 20260507093058 | 43 | 36 | 1.0 | 4.0 | 0.00 | 0.00 | 0.00 | 74 | 1015.1 |
| 20260507091557 | 42 | 36 | 1.0 | 4.0 | 0.00 | 0.00 | 0.00 | 79 | 1015.1 |
| 20260507090056 | 42 | 26 | 2.0 | 8.0 | 0.00 | 0.00 | 0.00 | 77 | 1015.2 |
| 20260507084601 | 45 | 15 | 4.0 | 9.0 | 0.00 | 0.00 | 0.00 | 66 | 1015.2 |
| 20260507083054 | 44 | 208 | 2.0 | 7.0 | 0.00 | 0.00 | 0.00 | 61 | 1015.0 |
| 20260507081555 | 44 | 176 | 1.0 | 5.0 | 0.00 | 0.00 | 0.00 | 60 | 1015.0 |
| 20260507080048 | 45 | 170 | 0.0 | 1.0 | 0.00 | 0.00 | 0.00 | 61 | 1014.9 |
| 20260507074543 | 44 | 94 | 0.0 | 2.0 | 0.00 | 0.00 | 0.00 | 66 | 1014.8 |
| 20260507073038 | 42 | 95 | 0.0 | 0.0 | 0.00 | 0.00 | 0.00 | 71 | 1015.1 |
| 20260507071537 | 41 | 199 | 0.0 | 2.0 | 0.00 | 0.00 | 0.00 | 72 | 1015.2 |
| 20260507070039 | 41 | 199 | 0.0 | 7.0 | 0.00 | 0.00 | 0.00 | 73 | 1015.3 |
| 20260507064541 | 41 | 246 | 4.0 | 9.0 | 0.00 | 0.00 | 0.00 | 81 | 1015.4 |
| 20260507063029 | 41 | 344 | 0.0 | 2.0 | 0.00 | 0.00 | 0.00 | 77 | 1015.1 |
| 20260507061536 | 40 | 344 | 1.0 | 7.0 | 0.00 | 0.00 | 0.00 | 80 | 1015.0 |
| 20260507060027 | 40 | 251 | 0.0 | 3.0 | 0.00 | 0.00 | 0.00 | 80 | 1015.0 |
| 20260507054526 | 39 | 251 | 2.0 | 9.0 | 0.00 | 0.00 | 0.00 | 82 | 1015.1 |
| 20260507053032 | 39 | 228 | 1.0 | 10.0 | 0.00 | 0.00 | 0.00 | 83 | 1015.0 |
| 20260507051525 | 39 | 157 | 2.0 | 6.0 | 0.00 | 0.00 | 0.00 | 84 | 1014.4 |
| 20260507050021 | 39 | 194 | 0.0 | 4.0 | 0.00 | 0.00 | 0.00 | 85 | 1014.4 |
| 20260507044518 | 39 | 220 | 1.0 | 3.0 | 0.00 | 0.00 | 0.00 | 86 | 1014.4 |
| 20260507043016 | 38 | 270 | 0.0 | 5.0 | 0.00 | 0.00 | 0.00 | 86 | 1014.2 |
| 20260507041515 | 39 | 262 | 0.0 | 5.0 | 0.00 | 0.00 | 0.00 | 87 | 1014.4 |
| 20260507040016 | 38 | 254 | 1.0 | 6.0 | 0.00 | 0.00 | 0.00 | 87 | 1014.3 |
| 20260507034514 | 38 | 201 | 0.0 | 3.0 | 0.00 | 0.00 | 0.00 | 87 | 1014.2 |
| 20260507033011 | 37 | 199 | 0.0 | 2.0 | 0.00 | 0.00 | 0.00 | 88 | 1014.2 |
| 20260507031508 | 37 | 198 | 0.0 | 4.0 | 0.00 | 0.00 | 0.00 | 88 | 1014.0 |
| 20260507030010 | 36 | 225 | 0.0 | 3.0 | 0.00 | 0.00 | 0.00 | 88 | 1014.1 |
| 20260507024506 | 35 | 233 | 0.0 | 3.0 | 0.00 | 0.00 | 0.00 | 88 | 1014.1 |
| 20260507023004 | 35 | 233 | 2.0 | 7.0 | 0.00 | 0.00 | 0.00 | 88 | 1014.1 |
| 20260507021501 | 36 | 218 | 1.0 | 4.0 | 0.00 | 0.00 | 0.00 | 88 | 1014.0 |
| 20260507020059 | 36 | 233 | 0.0 | 0.0 | 0.00 | 0.00 | 0.00 | 89 | 1014.0 |
| 20260507014559 | 36 | 201 | 0.0 | 2.0 | 0.00 | 0.00 | 0.00 | 89 | 1014.0 |
| 20260507013114 | 36 | 219 | 0.0 | 0.0 | 0.00 | 0.00 | 0.00 | 88 | 1013.9 |
| 20260507011556 | 36 | 222 | 0.0 | 0.0 | 0.00 | 0.00 | 0.00 | 88 | 1014.0 |
| 20260507010056 | 36 | 255 | 0.0 | 0.0 | 0.00 | 0.00 | 0.00 | 88 | 1014.1 |
| 20260507004554 | 36 | 255 | 0.0 | 0.0 | 0.00 | 0.00 | 0.00 | 87 | 1014.0 |
| 20260507003052 | 37 | 255 | 0.0 | 0.0 | 0.00 | 0.00 | 0.00 | 86 | 1014.0 |
| 20260507001608 | 37 | 255 | 0.0 | 0.0 | 0.00 | 0.00 | 0.00 | 84 | 1014.0 |
| 20260507000048 | 38 | 255 | 0.0 | 0.0 | 0.00 | 0.00 | 0.00 | 82 | 1013.9 |
| 20260506234555 | 40 | 255 | 0.0 | 0.0 | 0.00 | 0.00 | 0.00 | 79 | 1014.0 |
| 20260506233043 | 40 | 255 | 0.0 | 0.0 | 0.00 | 0.00 | 0.00 | 79 | 1013.9 |
| 20260506231541 | 40 | 255 | 2.0 | 6.0 | 0.00 | 0.00 | 0.00 | 79 | 1013.9 |
| 20260506230040 | 40 | 270 | 2.0 | 7.0 | 0.00 | 0.00 | 0.00 | 78 | 1013.9 |
| 20260506224549 | 40 | 243 | 3.0 | 10.0 | 0.00 | 0.00 | 0.00 | 78 | 1013.7 |
| 20260506223036 | 40 | 258 | 6.0 | 10.0 | 0.00 | 0.00 | 0.00 | 80 | 1013.7 |
| 20260506221533 | 40 | 253 | 4.0 | 11.0 | 0.00 | 0.00 | 0.00 | 79 | 1013.6 |
| 20260506220043 | 40 | 256 | 3.0 | 9.0 | 0.00 | 0.00 | 0.00 | 79 | 1013.5 |
| 20260506214530 | 40 | 253 | 3.0 | 9.0 | 0.00 | 0.00 | 0.00 | 80 | 1013.4 |
| 20260506213028 | 41 | 244 | 3.0 | 9.0 | 0.00 | 0.00 | 0.00 | 79 | 1013.3 |
| 20260506211526 | 41 | 251 | 5.0 | 11.0 | 0.00 | 0.00 | 0.00 | 78 | 1013.3 |
| 20260506210022 | 41 | 286 | 3.0 | 14.0 | 0.00 | 0.00 | 0.00 | 76 | 1013.2 |
| 20260506204522 | 41 | 253 | 6.0 | 12.0 | 0.00 | 0.00 | 0.00 | 78 | 1013.2 |
| 20260506203020 | 41 | 256 | 5.0 | 14.0 | 0.00 | 0.00 | 0.00 | 78 | 1013.2 |
| 20260506201519 | 41 | 254 | 4.0 | 13.0 | 0.00 | 0.00 | 0.00 | 79 | 1013.2 |
| 20260506200019 | 41 | 279 | 5.0 | 10.0 | 0.00 | 0.00 | 0.00 | 78 | 1013.3 |
| 20260506194534 | 41 | 309 | 4.0 | 11.0 | 0.00 | 0.00 | 0.00 | 77 | 1013.3 |
| 20260506193016 | 41 | 272 | 5.0 | 14.0 | 0.00 | 0.00 | 0.00 | 77 | 1013.2 |
| 20260506191516 | 42 | 321 | 3.0 | 9.0 | 0.00 | 0.00 | 0.00 | 74 | 1013.2 |
| 20260506190012 | 42 | 270 | 4.0 | 11.0 | 0.00 | 0.00 | 0.00 | 75 | 1012.8 |
| 20260506184511 | 41 | 245 | 8.0 | 15.0 | 0.00 | 0.00 | 0.00 | 74 | 1012.6 |
| 20260506183010 | 42 | 264 | 8.0 | 17.0 | 0.00 | 0.00 | 0.00 | 74 | 1012.4 |
| 20260506181508 | 42 | 241 | 8.0 | 19.0 | 0.00 | 0.00 | 0.00 | 75 | 1012.5 |
| 20260506180007 | 42 | 259 | 11.0 | 17.0 | 0.00 | 0.00 | 0.00 | 74 | 1012.2 |
| 20260506174505 | 42 | 250 | 9.0 | 17.0 | 0.00 | 0.00 | 0.00 | 74 | 1012.1 |
| 20260506173002 | 42 | 258 | 6.0 | 15.0 | 0.00 | 0.00 | 0.00 | 74 | 1012.0 |
| 20260506171501 | 42 | 255 | 7.0 | 12.0 | 0.00 | 0.00 | 0.00 | 73 | 1011.9 |
| 20260506170001 | 43 | 260 | 6.0 | 12.0 | 0.00 | 0.00 | 0.00 | 75 | 1011.9 |
| 20260506164600 | 43 | 264 | 5.0 | 14.0 | 0.00 | 0.00 | 0.00 | 73 | 1011.9 |
| 20260506163058 | 44 | 253 | 8.0 | 13.0 | 0.00 | 0.00 | 0.00 | 72 | 1011.9 |
| 20260506161601 | 44 | 262 | 5.0 | 12.0 | 0.00 | 0.00 | 0.00 | 69 | 1011.8 |
| 20260506160109 | 44 | 263 | 4.0 | 13.0 | 0.00 | 0.00 | 0.00 | 68 | 1011.7 |
| 20260506154555 | 45 | 273 | 7.0 | 15.0 | 0.00 | 0.00 | 0.00 | 68 | 1011.5 |
| 20260506153054 | 45 | 266 | 7.0 | 14.0 | 0.00 | 0.00 | 0.00 | 64 | 1011.5 |
| 20260506151552 | 46 | 290 | 6.0 | 18.0 | 0.00 | 0.00 | 0.00 | 63 | 1011.5 |
| 20260506150052 | 46 | 258 | 5.0 | 16.0 | 0.00 | 0.00 | 0.00 | 63 | 1011.5 |
| 20260506144553 | 46 | 261 | 5.0 | 15.0 | 0.00 | 0.00 | 0.00 | 62 | 1011.4 |
| 20260506143050 | 46 | 267 | 5.0 | 11.0 | 0.00 | 0.00 | 0.00 | 64 | 1011.4 |
| 20260506141548 | 46 | 274 | 6.0 | 16.0 | 0.00 | 0.00 | 0.00 | 64 | 1011.4 |
| 20260506140050 | 47 | 283 | 6.0 | 18.0 | 0.00 | 0.00 | 0.00 | 62 | 1011.4 |
| 20260506134548 | 46 | 274 | 6.0 | 12.0 | 0.00 | 0.00 | 0.00 | 62 | 1011.3 |
| 20260506133045 | 46 | 260 | 7.0 | 13.0 | 0.00 | 0.00 | 0.00 | 64 | 1011.4 |
| 20260506131557 | 46 | 275 | 7.0 | 16.0 | 0.00 | 0.00 | 0.00 | 63 | 1011.2 |
| 20260506130051 | 46 | 267 | 6.0 | 16.0 | 0.00 | 0.00 | 0.00 | 65 | 1011.2 |
| 20260506124542 | 46 | 280 | 7.0 | 15.0 | 0.00 | 0.00 | 0.00 | 66 | 1011.1 |
| 20260506123041 | 47 | 258 | 6.0 | 17.0 | 0.00 | 0.00 | 0.00 | 64 | 1011.1 |
| 20260506121538 | 46 | 324 | 6.0 | 13.0 | 0.00 | 0.00 | 0.00 | 64 | 1011.0 |
| 20260506120036 | 46 | 323 | 5.0 | 16.0 | 0.00 | 0.00 | 0.00 | 67 | 1011.0 |
| 20260506114534 | 46 | 316 | 6.0 | 18.0 | 0.00 | 0.00 | 0.00 | 66 | 1010.9 |
| 20260506113032 | 45 | 326 | 4.0 | 17.0 | 0.00 | 0.00 | 0.00 | 70 | 1010.8 |
| 20260506111530 | 45 | 260 | 8.0 | 14.0 | 0.00 | 0.00 | 0.00 | 69 | 1010.7 |
| 20260506110028 | 45 | 303 | 8.0 | 16.0 | 0.00 | 0.00 | 0.00 | 68 | 1010.5 |